Flag for Micronesia Weather past 2 weeks in Tofol, Kosrae, Micronesia

Now
82 °F

Mostly cloudy.


Feels Like: 88 °F
Forecast: 81 / 83 °F
Wind: 8 mph from Northeast

Location: Pohnpei

Current Time: Apr 1, 2015 at 5:07:10 AM

Latest Report: Apr 1, 2015 at 3:52 AM


Visibility: 15 mi

Pressure: 29.82 "Hg

Humidity: 76%

Dew point: 74 °F

Location of TofolLocation

Historic Weather in Tofol — Graph

°F

Tofol temperature yesterday

Maximum temperature yesterday: 85 °F (at 5:50 PM)
Minimum temperature yesterday: 80 °F (at 8:53 AM)
Average temperature yesterday: 83 °F

Past Weeks' High & Low Weather Summary

 TemperatureHumidityPressure
High88 °F (Mar 22, 10:53 AM)100% (Mar 19, 6:53 PM)29.98 "Hg (Mar 19, 6:53 PM)
Low73 °F (Mar 21, 5:50 AM)59% (Mar 21, 12:55 PM)29.67 "Hg (Mar 27, 2:53 PM)
Average81 °F86%29.86 "Hg
* Reported Mar 17 3:53 AM — Apr 1 3:52 AM, Tofol, Weather by CustomWeather, © 2015

Note: Actual official high and low records may vary slightly from our data, if they occured in-between our weather recording intervals... More about our weather records

Advertising

Tofol weather history for previous 24 hours

 ConditionsComfort  
Time TempWeatherWind HumidityBarometerVisibility
3:52 AM
Wed, Apr 1
82 °FMostly cloudy.8 mph76%29.82 "Hg15 mi
2:52 AM82 °FMostly cloudy.9 mph77%29.82 "Hg15 mi
1:53 AM82 °FMostly cloudy.7 mph75%29.83 "Hg15 mi
12:53 AM82 °FMostly cloudy.8 mph75%29.85 "Hg15 mi
11:55 PM
Tue, Mar 31
82 °FMostly cloudy.12 mph75%29.87 "Hg15 mi
10:50 PM82 °FMostly cloudy.6 mph77%29.89 "Hg15 mi
9:50 PM82 °FMostly cloudy.7 mph77%29.88 "Hg15 mi
8:50 PM82 °FMostly cloudy.9 mph75%29.86 "Hg15 mi
7:55 PM82 °FPassing clouds.9 mph79%29.85 "Hg15 mi
6:50 PM83 °FMostly cloudy.3 mph78%29.83 "Hg15 mi
5:50 PM85 °FMostly cloudy.5 mph71%29.80 "Hg15 mi
4:55 PM84 °FPartly sunny.6 mph75%29.80 "Hg15 mi
3:51 PM85 °FMostly cloudy.3 mph77%29.79 "Hg15 mi
2:51 PM85 °FMostly cloudy.3 mph75%29.80 "Hg15 mi
1:51 PM85 °FMostly cloudy.7 mph72%29.82 "Hg15 mi
12:50 PM85 °FMostly cloudy.7 mph73%29.85 "Hg15 mi
11:50 AM84 °FMostly cloudy.6 mph72%29.88 "Hg15 mi
10:52 AM83 °FMostly cloudy.6 mph78%29.90 "Hg15 mi
8:53 AM80 °FMostly cloudy.5 mph86%29.93 "Hg15 mi
7:55 AM83 °FMostly cloudy.7 mph81%29.90 "Hg15 mi
6:55 AM81 °FMostly cloudy.7 mph86%29.89 "Hg15 mi
5:55 AM81 °FMostly cloudy.6 mph81%29.87 "Hg15 mi
Weather by CustomWeather, © 2015

See weather overviewHow to use our weather pages